SAS222 ENCN-ENGM

Flight info

Callsign SAS222
Flight time 0h 50m
Altitude 25000
Route VAVET DCT PIPEX M609 RIPAM
Aircraft A320/M-SDE3FGHIRWY/LB1

Departure

Time 2026-05-05 16:49
Airport Kristiansand Airport (ENCN)

Arrival

Time 2026-05-05 17:39
Airport Oslo-Gardermoen International Airport (ENGM)
Time Latitude Longitude Altitude Speed Heading
2026-05-05 16:22 58.20153 8.07442 58 ft 0 kts 302°
2026-05-05 16:40 58.20148 8.07459 58 ft 4 kts 306°
2026-05-05 16:40 58.20129 8.07495 55 ft 4 kts 333°
2026-05-05 16:40 58.20106 8.07503 55 ft 4 kts 25°
2026-05-05 16:41 58.20102 8.07499 54 ft 0 kts 31°
2026-05-05 16:44 58.20105 8.07502 56 ft 4 kts 31°
2026-05-05 16:45 58.20153 8.07558 52 ft 1 kts 31°
2026-05-05 16:45 58.20209 8.07622 54 ft 17 kts 32°
2026-05-05 16:45 58.20294 8.07729 50 ft 10 kts 43°
2026-05-05 16:45 58.20347 8.07849 55 ft 14 kts 52°
2026-05-05 16:46 58.20411 8.08009 58 ft 17 kts 53°
2026-05-05 16:46 58.20472 8.08187 56 ft 15 kts 84°
2026-05-05 16:46 58.20431 8.08381 56 ft 17 kts 125°
2026-05-05 16:46 58.20448 8.08568 58 ft 17 kts 39°
2026-05-05 16:47 58.20560 8.08716 58 ft 22 kts 35°
2026-05-05 16:47 58.20690 8.08894 53 ft 24 kts 34°
2026-05-05 16:47 58.20813 8.09057 61 ft 20 kts 37°
2026-05-05 16:47 58.20937 8.09220 61 ft 23 kts 34°
2026-05-05 16:48 58.21074 8.09404 55 ft 22 kts 36°
2026-05-05 16:48 58.21143 8.09472 56 ft 5 kts 254°
2026-05-05 16:48 58.21106 8.09438 55 ft 7 kts 201°
2026-05-05 16:48 58.21084 8.09414 54 ft 0 kts 213°
2026-05-05 16:49 58.20908 8.09182 60 ft 70 kts 215°
2026-05-05 16:49 58.20317 8.08399 57 ft 133 kts 215°
2026-05-05 16:49 58.19446 8.07250 327 ft 154 kts 220°
2026-05-05 16:49 58.18592 8.06070 1118 ft 152 kts 216°
2026-05-05 16:50 58.17626 8.05136 1628 ft 168 kts 204°
2026-05-05 16:50 58.16430 8.04407 1986 ft 192 kts 200°
2026-05-05 16:50 58.15074 8.03619 2372 ft 215 kts 199°
2026-05-05 16:50 58.13557 8.02739 2852 ft 237 kts 199°
2026-05-05 16:51 58.11962 8.01818 3764 ft 242 kts 199°
2026-05-05 16:51 58.10238 8.01258 4468 ft 264 kts 178°
2026-05-05 16:51 58.08467 8.02357 5338 ft 276 kts 146°
2026-05-05 16:51 58.07200 8.05076 6321 ft 280 kts 114°
2026-05-05 16:52 58.06846 8.08668 7215 ft 283 kts 82°
2026-05-05 16:52 58.07546 8.12104 8026 ft 284 kts 47°
2026-05-05 16:52 58.09032 8.14456 8845 ft 284 kts 27°
2026-05-05 16:52 58.10706 8.16517 9721 ft 290 kts 26°
2026-05-05 16:53 58.12439 8.18637 10296 ft 306 kts 26°
2026-05-05 16:53 58.14304 8.20908 10609 ft 329 kts 27°
2026-05-05 16:53 58.16266 8.23323 11198 ft 341 kts 27°
2026-05-05 16:53 58.18266 8.25816 11933 ft 347 kts 28°
2026-05-05 16:54 58.20296 8.28366 12706 ft 353 kts 28°
2026-05-05 16:54 58.22357 8.30968 13518 ft 358 kts 28°
2026-05-05 16:54 58.24442 8.33600 14215 ft 363 kts 28°
2026-05-05 16:54 58.26560 8.36274 14856 ft 368 kts 27°
2026-05-05 16:55 58.28712 8.38981 15479 ft 373 kts 27°
2026-05-05 16:55 58.30156 8.40797 15901 ft 377 kts 27°
2026-05-05 16:55 58.32358 8.43569 16540 ft 383 kts 26°
2026-05-05 16:55 58.34594 8.46388 17192 ft 388 kts 26°
2026-05-05 16:56 58.36861 8.49252 17827 ft 394 kts 26°
2026-05-05 16:56 58.39157 8.52161 18432 ft 399 kts 26°
2026-05-05 16:56 58.41489 8.55125 19027 ft 404 kts 26°
2026-05-05 16:56 58.43840 8.58116 19647 ft 408 kts 26°
2026-05-05 16:57 58.46207 8.61130 20300 ft 412 kts 26°
2026-05-05 16:57 58.48574 8.64151 20883 ft 416 kts 26°
2026-05-05 16:57 58.50993 8.67245 21487 ft 420 kts 26°
2026-05-05 16:57 58.53432 8.70372 22068 ft 424 kts 26°
2026-05-05 16:58 58.55895 8.73532 22665 ft 428 kts 26°
2026-05-05 16:58 58.58384 8.76726 23260 ft 432 kts 26°
2026-05-05 16:58 58.60893 8.79955 23760 ft 436 kts 27°
2026-05-05 16:58 58.63430 8.83231 24189 ft 441 kts 27°
2026-05-05 16:59 58.65955 8.86496 24647 ft 444 kts 27°
2026-05-05 16:59 58.68523 8.89823 24874 ft 445 kts 27°
2026-05-05 16:59 58.71074 8.93142 24926 ft 440 kts 27°
2026-05-05 16:59 58.73602 8.96442 24949 ft 437 kts 26°
2026-05-05 17:00 58.76117 8.99719 24925 ft 436 kts 26°
2026-05-05 17:00 58.78635 9.02993 24932 ft 436 kts 26°
2026-05-05 17:00 58.81150 9.06268 24930 ft 436 kts 26°
2026-05-05 17:00 58.83666 9.09551 24931 ft 436 kts 26°
2026-05-05 17:01 58.86153 9.12802 24931 ft 436 kts 26°
2026-05-05 17:01 58.88665 9.16096 24925 ft 436 kts 26°
2026-05-05 17:01 58.91174 9.19396 24926 ft 436 kts 26°
2026-05-05 17:01 58.93688 9.22710 24926 ft 436 kts 26°
2026-05-05 17:02 58.96193 9.26023 24929 ft 436 kts 26°
2026-05-05 17:02 58.98703 9.29343 24998 ft 436 kts 25°
2026-05-05 17:02 59.01221 9.32674 24934 ft 436 kts 25°
2026-05-05 17:02 59.03687 9.35955 24922 ft 435 kts 25°
2026-05-05 17:03 59.06189 9.39284 24916 ft 435 kts 25°
2026-05-05 17:03 59.08691 9.42613 24917 ft 435 kts 25°
2026-05-05 17:03 59.11201 9.45951 24921 ft 440 kts 25°
2026-05-05 17:03 59.13742 9.49330 24923 ft 444 kts 26°
2026-05-05 17:04 59.16299 9.52745 24678 ft 444 kts 26°
2026-05-05 17:04 59.18847 9.56163 24098 ft 443 kts 26°
2026-05-05 17:04 59.21346 9.59531 23600 ft 440 kts 26°
2026-05-05 17:04 59.23885 9.62962 23054 ft 437 kts 26°
2026-05-05 17:05 59.26345 9.66298 22594 ft 434 kts 25°
2026-05-05 17:05 59.28826 9.69667 21869 ft 434 kts 25°
2026-05-05 17:05 59.31352 9.73082 20878 ft 443 kts 25°
2026-05-05 17:05 59.33839 9.76527 20644 ft 433 kts 27°
2026-05-05 17:06 59.36205 9.80064 20026 ft 434 kts 30°
2026-05-05 17:06 59.38554 9.83796 19427 ft 435 kts 31°
2026-05-05 17:06 59.40880 9.87610 18817 ft 435 kts 32°
2026-05-05 17:06 59.43167 9.91404 18215 ft 422 kts 32°
2026-05-05 17:07 59.45362 9.95048 17589 ft 403 kts 31°
2026-05-05 17:07 59.47459 9.98497 17045 ft 384 kts 31°
2026-05-05 17:07 59.49455 10.01766 16878 ft 364 kts 31°
2026-05-05 17:07 59.51376 10.04890 16837 ft 351 kts 32°
2026-05-05 17:08 59.53229 10.07890 16741 ft 338 kts 31°
2026-05-05 17:08 59.55022 10.10780 16666 ft 327 kts 31°
2026-05-05 17:08 59.56759 10.13570 16571 ft 317 kts 31°
2026-05-05 17:08 59.58465 10.16306 16228 ft 316 kts 31°
2026-05-05 17:09 59.60154 10.19009 15798 ft 318 kts 31°
2026-05-05 17:09 59.61880 10.21773 15360 ft 320 kts 32°
2026-05-05 17:09 59.63614 10.24571 14920 ft 322 kts 33°
2026-05-05 17:09 59.65355 10.27399 14478 ft 325 kts 33°
2026-05-05 17:10 59.67103 10.30256 14020 ft 326 kts 34°
2026-05-05 17:10 59.68856 10.33134 13564 ft 327 kts 34°
2026-05-05 17:10 59.70607 10.36007 13090 ft 326 kts 35°
2026-05-05 17:10 59.72360 10.38876 12640 ft 326 kts 35°
2026-05-05 17:11 59.74103 10.41735 12193 ft 324 kts 36°
2026-05-05 17:11 59.75834 10.44577 11764 ft 323 kts 36°
2026-05-05 17:11 59.77566 10.47420 11308 ft 321 kts 37°
2026-05-05 17:11 59.79280 10.50238 10867 ft 320 kts 37°
2026-05-05 17:12 59.80988 10.53052 10431 ft 318 kts 37°
2026-05-05 17:12 59.82690 10.55855 9996 ft 317 kts 37°
2026-05-05 17:12 59.84381 10.58646 9542 ft 315 kts 37°
2026-05-05 17:12 59.86063 10.61431 9097 ft 313 kts 38°
2026-05-05 17:13 59.87730 10.64199 8670 ft 310 kts 38°
2026-05-05 17:13 59.89380 10.66944 8245 ft 308 kts 37°
2026-05-05 17:13 59.91017 10.69671 7821 ft 306 kts 37°
2026-05-05 17:13 59.92646 10.72387 7404 ft 304 kts 37°
2026-05-05 17:14 59.94243 10.75055 7047 ft 291 kts 37°
2026-05-05 17:14 59.95712 10.77512 6999 ft 266 kts 37°
2026-05-05 17:14 59.96940 10.80081 7005 ft 252 kts 53°
2026-05-05 17:14 59.97716 10.83205 7001 ft 253 kts 72°
2026-05-05 17:15 59.98149 10.86617 7009 ft 253 kts 75°
2026-05-05 17:15 59.98267 10.90087 7003 ft 252 kts 102°
2026-05-05 17:15 59.97547 10.93232 6915 ft 250 kts 129°
2026-05-05 17:15 59.96420 10.95873 6592 ft 249 kts 134°
2026-05-05 17:16 59.95234 10.98415 6258 ft 250 kts 135°
2026-05-05 17:16 59.93928 11.00634 5944 ft 244 kts 156°
2026-05-05 17:16 59.92314 11.01325 5632 ft 236 kts 187°
2026-05-05 17:16 59.90711 11.00885 5304 ft 234 kts 194°
2026-05-05 17:17 59.89104 11.00264 4961 ft 235 kts 195°
2026-05-05 17:17 59.87506 10.99612 4662 ft 234 kts 194°
2026-05-05 17:17 59.85936 10.98811 4336 ft 229 kts 210°
2026-05-05 17:17 59.84785 10.96844 4051 ft 218 kts 243°
2026-05-05 17:18 59.84437 10.93992 4004 ft 216 kts 277°
2026-05-05 17:18 59.84991 10.91250 4012 ft 217 kts 310°
2026-05-05 17:18 59.86223 10.89496 4009 ft 221 kts 332°
2026-05-05 17:18 59.87629 10.88243 4010 ft 221 kts 335°
2026-05-05 17:19 59.89049 10.87069 4010 ft 221 kts 335°
2026-05-05 17:19 59.90474 10.85909 4013 ft 220 kts 335°
2026-05-05 17:19 59.91876 10.84763 4012 ft 220 kts 335°
2026-05-05 17:19 59.93292 10.83604 4008 ft 220 kts 335°
2026-05-05 17:20 59.94722 10.82492 4006 ft 222 kts 343°
2026-05-05 17:20 59.96261 10.82534 4012 ft 227 kts 15°
2026-05-05 17:20 59.97560 10.84361 4011 ft 235 kts 43°
2026-05-05 17:20 59.98685 10.86710 4004 ft 229 kts 43°
2026-05-05 17:21 59.99757 10.88924 4005 ft 217 kts 43°
2026-05-05 17:21 60.00803 10.91079 4006 ft 216 kts 43°
2026-05-05 17:21 60.01828 10.93285 3948 ft 218 kts 44°
2026-05-05 17:22 60.03777 10.97697 4003 ft 215 kts 45°
2026-05-05 17:22 60.04939 10.99543 3639 ft 213 kts 18°
2026-05-05 17:22 60.06347 11.00413 3300 ft 211 kts 12°
2026-05-05 17:22 60.07760 11.01215 2990 ft 211 kts 11°
2026-05-05 17:23 60.09169 11.02018 2696 ft 211 kts 11°
2026-05-05 17:23 60.10582 11.02828 2413 ft 210 kts 11°
2026-05-05 17:23 60.11991 11.03635 2105 ft 210 kts 11°
2026-05-05 17:23 60.13390 11.04438 1822 ft 208 kts 12°
2026-05-05 17:24 60.14780 11.05235 1506 ft 208 kts 13°
2026-05-05 17:24 60.16166 11.06031 1196 ft 206 kts 12°
2026-05-05 17:24 60.17539 11.06823 918 ft 205 kts 12°
2026-05-05 17:24 60.18893 11.07620 820 ft 199 kts 15°
2026-05-05 17:25 60.20315 11.08470 1794 ft 215 kts 13°
2026-05-05 17:25 60.21249 11.09053 2455 ft 211 kts 13°
2026-05-05 17:25 60.23092 11.10236 2906 ft 205 kts 17°
2026-05-05 17:25 60.24234 11.11949 3050 ft 210 kts 54°
2026-05-05 17:26 60.24651 11.14732 3500 ft 216 kts 87°
2026-05-05 17:26 60.24583 11.17789 3953 ft 219 kts 94°
2026-05-05 17:26 60.24419 11.20853 4407 ft 221 kts 95°
2026-05-05 17:26 60.24239 11.23934 4857 ft 221 kts 95°
2026-05-05 17:27 60.24060 11.27019 5298 ft 222 kts 95°
2026-05-05 17:27 60.23854 11.30103 5742 ft 224 kts 103°
2026-05-05 17:27 60.23122 11.32836 6193 ft 225 kts 138°
2026-05-05 17:27 60.21758 11.34331 6628 ft 236 kts 171°
2026-05-05 17:28 60.20088 11.34606 6698 ft 240 kts 183°
2026-05-05 17:28 60.18419 11.34546 6368 ft 241 kts 185°
2026-05-05 17:28 60.16746 11.34437 6042 ft 240 kts 185°
2026-05-05 17:28 60.15074 11.34317 5713 ft 240 kts 186°
2026-05-05 17:29 60.13407 11.34212 5406 ft 239 kts 185°
2026-05-05 17:29 60.11750 11.34104 5114 ft 237 kts 185°
2026-05-05 17:29 60.10100 11.33984 4772 ft 237 kts 186°
2026-05-05 17:29 60.08447 11.33884 4446 ft 237 kts 185°
2026-05-05 17:30 60.06810 11.33727 4126 ft 234 kts 191°
2026-05-05 17:30 60.05234 11.33171 4006 ft 233 kts 195°
2026-05-05 17:30 60.03640 11.32511 4005 ft 233 kts 198°
2026-05-05 17:30 60.02172 11.31227 4011 ft 229 kts 213°
2026-05-05 17:31 60.00802 11.29608 4010 ft 229 kts 215°
2026-05-05 17:31 59.99444 11.27956 4012 ft 228 kts 216°
2026-05-05 17:31 59.98084 11.26297 4001 ft 229 kts 215°
2026-05-05 17:31 59.96748 11.24650 4004 ft 226 kts 215°
2026-05-05 17:32 59.95468 11.23014 4000 ft 210 kts 222°
2026-05-05 17:32 59.94676 11.20776 4007 ft 193 kts 258°
2026-05-05 17:32 59.94670 11.18195 3866 ft 185 kts 281°
2026-05-05 17:32 59.94947 11.15707 3591 ft 181 kts 285°
2026-05-05 17:33 59.95259 11.13280 3205 ft 182 kts 285°
2026-05-05 17:33 59.95580 11.10831 3014 ft 183 kts 285°
2026-05-05 17:33 59.95907 11.08367 3004 ft 184 kts 285°
2026-05-05 17:33 59.96235 11.05894 3009 ft 184 kts 285°
2026-05-05 17:34 59.96563 11.03412 3013 ft 185 kts 285°
2026-05-05 17:34 59.96883 11.00970 3011 ft 183 kts 287°
2026-05-05 17:34 59.97552 10.98853 3008 ft 185 kts 319°
2026-05-05 17:34 59.98669 10.97549 3010 ft 189 kts 337°
2026-05-05 17:35 59.99955 10.97068 3015 ft 191 kts 355°
2026-05-05 17:35 60.01276 10.97510 3024 ft 194 kts 12°
2026-05-05 17:35 60.02551 10.98243 3009 ft 186 kts 11°
2026-05-05 17:35 60.03734 10.98920 3001 ft 169 kts 11°
2026-05-05 17:36 60.04847 10.99553 3007 ft 165 kts 11°
2026-05-05 17:36 60.05948 11.00180 3007 ft 163 kts 11°
2026-05-05 17:36 60.07042 11.00804 2996 ft 164 kts 10°
2026-05-05 17:36 60.08125 11.01422 2863 ft 162 kts 11°
2026-05-05 17:37 60.09208 11.02042 2679 ft 162 kts 12°
2026-05-05 17:37 60.09940 11.02461 2527 ft 162 kts 12°
2026-05-05 17:37 60.11377 11.03284 2235 ft 163 kts 10°
2026-05-05 17:37 60.12458 11.03904 2007 ft 160 kts 11°
2026-05-05 17:38 60.13496 11.04502 1786 ft 149 kts 11°
2026-05-05 17:38 60.14466 11.05059 1576 ft 141 kts 11°
2026-05-05 17:38 60.15410 11.05600 1362 ft 141 kts 12°
2026-05-05 17:38 60.16354 11.06141 1157 ft 142 kts
2026-05-05 17:39 60.17297 11.06684 958 ft 141 kts 11°
2026-05-05 17:39 60.18237 11.07223 772 ft 139 kts 13°
2026-05-05 17:39 60.19150 11.07731 671 ft 120 kts 17°
2026-05-05 17:39 60.19572 11.07979 673 ft 12 kts 13°
2026-05-05 17:40 60.19795 11.08117 673 ft 25 kts 17°
2026-05-05 17:40 60.19930 11.08224 675 ft 17 kts 49°
2026-05-05 17:40 60.19920 11.08352 675 ft 15 kts 129°
2026-05-05 17:40 60.19898 11.08435 675 ft 4 kts 108°
2026-05-05 17:41 60.19890 11.08483 675 ft 6 kts 112°
2026-05-05 17:41 60.19868 11.08616 678 ft 11 kts 106°
2026-05-05 17:41 60.19839 11.08708 679 ft 12 kts 158°
2026-05-05 17:41 60.19743 11.08661 679 ft 16 kts 199°
2026-05-05 17:42 60.19623 11.08586 679 ft 15 kts 197°
2026-05-05 17:42 60.19538 11.08581 677 ft 14 kts 146°
2026-05-05 17:42 60.19501 11.08785 682 ft 16 kts 106°
2026-05-05 17:42 60.19468 11.09010 685 ft 18 kts 107°
2026-05-05 17:43 60.19453 11.09162 685 ft 5 kts 60°
2026-05-05 17:43 60.19475 11.09182 682 ft 3 kts 19°
2026-05-05 17:43 60.19498 11.09196 685 ft 1 kts 14°
2026-05-05 17:43 60.19500 11.09197 685 ft 0 kts 14°